Regional Weather Roundup
Issued by NWS

Home | Current Version | Previous Version | Text Only | Print | Product List | Glossary Off
Versions: 1 2 3 4 5 6 7 8 9 10 11 12 13 14 15 16 17 18 19 20 21 22 23 24 25 26 27 28 29 30 31 32 33 34 35 36 37 38 39 40 41 42 43 44 45 46 47 48 49 50

000
ASUS45 KCYS 010110
RWRWY

WYOMING REGIONAL WEATHER ROUNDUP
NATIONAL WEATHER SERVICE CHEYENNE WY
700 PM MDT MON AUG 31 2015

NOTE:  "FAIR" INDICATES FEW OR NO CLOUDS BELOW 12,000 FEET
WITH NO SIGNIFICANT WEATHER AND/OR OBSTRUCTIONS TO VISIBILITY.

WYZ001-010200-
YELLOWSTONE NATIONAL PARK

CITY           SKY/WX    TMP DP  RH WIND       PRES   REMARKS
LK YELLOWSTONE   N/A     61  25  25 VRB7      30.22F
W YELLOWSTONE  NOT AVBL

$$
WYZ002>013-054>058-071-098>099-010200-
NORTHERN WYOMING

CITY           SKY/WX    TMP DP  RH WIND       PRES   REMARKS
JACKSON        FAIR      72  23  16 SW10G17   30.11F
CODY           FAIR      79  28  15 W3        29.96S
GREYBULL       FAIR      85  23  10 CALM      29.86F
WORLAND        FAIR      82  33  17 N7        29.87S
SHERIDAN       FAIR      73  46  38 NW6       29.90S
BUFFALO        FAIR      77  43  29 N12       29.97R
GILLETTE       FAIR      80  38  22 NE7       29.90S
HULETT         FAIR      72  54  53 E9        29.95S
NEWCASTLE      FAIR      75  50  41 MISG      29.95S

$$
WYZ014>020-022>026-101>103-010200-
CENTRAL WYOMING

CITY           SKY/WX    TMP DP  RH WIND       PRES   REMARKS
BIG PINEY      FAIR      74  25  16 NW9       30.15S
PINEDALE       FAIR      72  21  15 W13       30.15F
DUBOIS         FAIR      68  21  17 NW14G21   30.13S
LANDER         FAIR      81  24  12 NW13      29.98R
RIVERTON       FAIR      82  18   9 W12       29.99R
CASPER         FAIR      81  19  10 W16       29.98S
DOUGLAS          N/A     73  48  41 SE6       30.00R

$$
WYZ021-027>030-104>119-010200-
SOUTHERN WYOMING

CITY           SKY/WX    TMP DP  RH WIND       PRES   REMARKS
EVANSTON       FAIR      74  29  19 W17       30.17S
KEMMERER       FAIR      72  23  16 W14G23    30.18S
FORT BRIDGER   CLEAR     77  28  16 NW13G24   30.19S
ROCK SPRINGS   FAIR      72  38  29 SW14      30.15R
DIXON          FAIR      57  49  73 E14G21    30.24F
RAWLINS        FAIR      67  40  37 S20G26    30.17F
SARATOGA       FAIR      55  46  71 S15G24    30.23F
LARAMIE        LGT RAIN  52  49  89 NW12      30.28R
CHEYENNE       MOCLDY    68  51  54 SW7       30.16F
TORRINGTON     FAIR      73  49  42 S20G26    30.00R
PINE BLUFFS    FAIR      70  46  43 N9        30.14R

$$


USA.gov is the U.S. government's official web portal to all federal, state and local government web resources and services.